Regional Weather Roundup
Issued by NWS

Home | Current Version | Previous Version | Graphics & Text | Print | Product List | Glossary On
Versions: 1 2 3 4 5 6 7 8 9 10 11 12 13 14 15 16 17 18 19 20 21 22 23 24 25 26 27 28 29 30 31 32 33 34 35 36 37 38 39 40 41 42 43 44 45 46 47 48 49 50
000
ASUS45 KSLC 220510
RWRUT

UTAH REGIONAL WEATHER ROUNDUP
NATIONAL WEATHER SERVICE SALT LAKE CITY UT
1000 PM MST TUE FEB 21 2017

UTZ001>011-023>025-220600-

NORTHERN UTAH

CITY           SKY/WX    TMP DP  RH WIND       PRES   REMARKS
BRIGHAM CITY     N/A     40  34  80 S16       30.08R WCI  31
HILL AFB       FLURRIES  36  32  87 S15       30.06F WCI  26
LOGAN          MIX PCPN  37  34  89 S9        30.06R WCI  30
OGDEN          LGT RAIN  37  34  89 S9        30.06R WCI  30
SALT LAKE CITY FLURRIES  34  33  96 SE8       30.10F WCI  27
TOOELE VALLEY  LGT RAIN  34  34 100 SE8       30.11F WCI  27
WENDOVER       PTCLDY    39  25  56 W9        30.05R WCI  33
HEBER CITY     LGT SNOW  34  30  86 NE8G16    30.03R WCI  27
WEST JORDAN    CLOUDY    35  35 100 CALM      30.11F

$$

UTZ011>015-024>027-220600-

CENTRAL/NORTHEAST UTAH

CITY           SKY/WX    TMP DP  RH WIND       PRES   REMARKS
PROVO AIRPORT  LGT RAIN  36  32  85 N17G23    30.08R WCI  26
MOAB/CANYONLAN PTCLDY    51  36  56 SW12      30.01F
DELTA          CLOUDY    41  34  75 NW8G20    30.04R
PRICE          PTCLDY    38  36  92 N7        30.00S WCI  33
RICHFIELD      CLEAR     46  28  49 SW12G17   30.06F
ROOSEVELT      CLEAR     39  34  81 CALM      29.96R
VERNAL         CLEAR     39  32  76 SW9       29.93S WCI  33

$$

UTZ013>016-019>022-027-220600-

SOUTHERN UTAH

CITY           SKY/WX    TMP DP  RH WIND       PRES   REMARKS
BRYCE CANYON   PTCLDY    38  29  70 SW15      30.17S WCI  29
CEDAR CITY     MOCLDY    47  32  56 SW22G29   30.06F
MILFORD        PTCLDY    44  36  73 S15       30.07F
ST GEORGE      CLOUDY    57  43  59 S7        30.10S
HANKSVILLE     PTCLDY    55  34  44 SW24G33   30.04S
KANAB          CLEAR     48  39  71 SW8       30.20F
BLANDING       CLOUDY    50  33  52 SE3       30.22S

$$

REGIONAL REPORTS     COLORADO/ARIZONA

CITY           SKY/WX    TMP DP  RH WIND       PRES   REMARKS
CRAIG, CO      CLEAR     48  29  47 SW25G33   29.93F
GRAND JUNCTION CLOUDY    51  36  56 S5        30.01F
RIFLE, CO      CLOUDY    48  33  56 VRB5      29.99F
MONTROSE, CO   CLOUDY    55  30  38 SW23G32   30.07F
CORTEZ, CO     CLOUDY    50  35  56 CALM      30.19R
COLORADO CITY    N/A     46  41  81 CALM      30.19S
PAGE, AZ       CLOUDY    55  33  43 SE9       30.10S
GRAND CANYON   PTCLDY    36  36 100 CALM      30.26S
KINGMAN, AZ    PTCLDY    51  46  83 S7        30.17F
FLAGSTAFF, AZ  CLEAR     41  38  89 S7        30.29F

$$

REGIONAL REPORTS    NEVADA/IDAHO/WYOMING

CITY           SKY/WX    TMP DP  RH WIND       PRES   REMARKS
LAS VEGAS, NV  MOCLDY    62  40  44 SW14G22   30.06S
ELY, NY        LGT SNOW  32  32 100 NW5       30.05R VSB 3/4 WCI  27
ELKO, NV       LGT SNOW  33  30  88 S8        30.08S FOG     WCI  26
POCATELLO, ID  CLOUDY    35  29  78 SW13      29.98S WCI  26
BURLEY, ID     CLOUDY    39  27  62 SW10      30.01R WCI  32
FORT BRIDGER,  LGT SNOW  29  29 100 W10       30.06S VSB 1   WCI  20
EVANSTON, WY   LGT SNOW  29  26  89 SW6       30.04R VSB 3/4 WCI  23
ROCK SPRINGS,  LGT SNOW  30  27  88 W9G20     30.01S FOG     WCI  22

$$



USA.gov is the U.S. government's official web portal to all federal, state and local government web resources and services.